Find Starlink 38305

NORAD ID: 100372 Int'l Des: 2026-190 Owner: SPXS Country: US Constellation: starlink operational

当前视图

正在加载3D地球...

About Starlink 38305

Starlink 38305 (NORAD 100372) is a starlink constellation satellite launched Aug 19, 2026 by SPXS of US. with a mass of 575.00 kg.

即将过境

Passes for default location (London). Set your location on the main map for personalized predictions.

高度历史

Loading altitude history...

两行轨道根数

1 A0372U 26190B 26262.88666524 -.00321401 00000-0 -51455-2 0 9998
2 A0372 97.2844 117.1308 0001884 27.6393 332.4961 15.54185938 6272
Epoch: Sep 19, 2026 • Age: 16 hours

当前状态

高度 421.8 km
远地点 / 近地点 N/A
速度 7.66 km/s
星下点 -38.53°S, 87.47°E
发射日期 Aug 19, 2026
运行时间 32 days
类型 internet

技术详情

分类 Payload
质量 575.00 kg
干质量 530.00 kg
长度 0.30 m
跨度 29.00 m
形状 ? Box + pan
制造商 SPXS
平台类型 Starlink V2MO
阶段状态 In Orbit
所有者/国家 SPXS/US

Most Searched